Regional Weather Roundup
Issued by NWS

Home | Current Version | Previous Version | Graphics & Text | Print | Product List | Glossary On
Versions: 1 2 3 4 5 6 7 8 9 10 11 12 13 14 15 16 17 18 19 20 21 22 23 24 25 26 27 28 29 30 31 32 33 34 35 36 37 38 39 40 41 42 43 44 45 46 47 48 49 50
000
ASUS43 KLOT 240608
RWRIL

ILLINOIS REGIONAL WEATHER ROUNDUP
NATIONAL WEATHER SERVICE CHICAGO/ROMEOVILLE IL
100 AM CDT SUN JUL 24 2016

NOTE: "FAIR" INDICATES FEW OR NO CLOUDS BELOW 12,000 FEET WITH NO
SIGNIFICANT WEATHER AND/OR OBSTRUCTIONS TO VISIBILITY.

* THESE STATIONS ARE NOT UNDER NWS QUALITY CONTROL. THEY ALSO MAY NOT
  REPORT WEATHER SUCH AS PRECIPITATION OR FOG.

ILZ001-002-007-009-015-016-024-240700-
NORTHWEST ILLINOIS

CITY           SKY/WX    TMP DP  RH WIND       PRES   REMARKS
MOLINE         CLOUDY    79  72  79 S9        29.89F HX  82
6HR MIN TEMP:  77; 6HR MAX TEMP:  87;

STERLING*      CLOUDY    72  71  97 SE7       29.92F
SAVANNA*       PTCLDY    72  70  93 S6        29.89S
$$

ILZ003-004-008-010-011-017-018-240700-
NORTH CENTRAL ILLINOIS

CITY           SKY/WX    TMP DP  RH WIND       PRES   REMARKS
ROCKFORD       CLOUDY    72  70  93 S10       29.93F
6HR MIN TEMP:  71; 6HR MAX TEMP:  75; 6HR PCP:  0.56;

FREEPORT*      CLOUDY    70  69  97 SE7       29.93F
ROCHELLE*      CLOUDY    71  70  97 SE7       29.94S
DE KALB*       CLOUDY    71  70  98 SE9       29.96S FOG
$$

ILZ005-006-012>014-019>023-240700-
NORTHEAST ILLINOIS

CITY           SKY/WX    TMP DP  RH WIND       PRES   REMARKS
CHICAGO-OHARE  LGT RAIN  72  70  93 SE12      29.96F
6HR MIN TEMP:  70; 6HR MAX TEMP:  75; 6HR PCP:  1.07;

CHICAGO-MIDWAY TSTM      73  70  90 E13       29.96F
6HR MIN TEMP:  72; 6HR MAX TEMP:  81; 6HR PCP:  1.30;

AURORA         CLOUDY    73  71  93 SE12      29.96S
6HR MIN TEMP:  71; 6HR MAX TEMP:  78; 6HR PCP:  1.13;

LANSING*       TSTM      70  69  96 E6        30.00F
JOLIET*        TSTM      72  71  96 E10       29.96F
WAUKEGAN       CLOUDY    72  69  90 S14       29.92F
6HR MIN TEMP:  70; 6HR MAX TEMP:  72; 6HR PCP:  0.62;

DUPAGE AIRPORT CLOUDY    71  68  90 SE13      29.95S
6HR MIN TEMP:  71; 6HR MAX TEMP:  74; 6HR PCP:  0.98;

WHEELING       LGT RAIN  72  69  90 SE8       29.95F
6HR MIN TEMP:  69; 6HR MAX TEMP:  74; 6HR PCP:  1.82;

MORRIS*        CLOUDY    72  70  95 E5        29.94F
ROMEOVILLE*    TSTM      71  69  95 SE9       29.97F
NORTHERLY ISL    N/A     70  68  93 SE6         N/A
$$

LMZ740>746-240700-
SOUTHERN LAKE MICHIGAN

STATION/POSITION SKY/WX   TEMP    WIND        PRES    VSBY  WAVE
                          AIR SEA DIR/SP/G                  HT/PER
                          (F)     (DEG/KT/KT) (MB)    (MI)  (FT/S)
SOUTHERN BUOY              73 73  190/ 14/ 16 1013.2F         1/ 3
WILMETTE HARBOR            68 65  170/ 12/ 16   N/A           1
HARRISON CRIB              71     190/ 16/ 17   N/A
BURNHAM HARBOR             70     140/  7/ 10   N/A
CALUMET HARBOR             70     220/  3/  8 1015.9R
BURNS HARBOR               71     210/ 13     1016.9R
MICHIGAN CITY              71                   N/A
MICHIGAN CITY 6N           71 72  260/ 10/ 16   N/A           2/ 5
ST. JOSEPH                 72 75  250/  8/ 14 1015.4R         2/ 2
$$

ILZ025>027-034>036-040-047-049-050-058-095>099-240700-
WEST-CENTRAL ILLINOIS

CITY           SKY/WX    TMP DP  RH WIND       PRES   REMARKS
QUINCY         CLOUDY    81  76  84 S10       29.92S HX  87
GALESBURG*     PTCLDY    78  76  95 SE5       29.92F HX  81
MACOMB*        CLOUDY    80  76  90 S6        29.94F HX  84
JACKSONVILLE*  PTCLDY    81  76  84 S5        29.93S HX  87
PITTSFIELD*    PTCLDY    79  77  94 S5        29.95S HX  83
$$

ILZ028>032-037-038-041>044-048-051>054-059>061-240700-
CENTRAL ILLINOIS

CITY           SKY/WX    TMP DP  RH WIND       PRES   REMARKS
PONTIAC        CLOUDY    77  76  97 SE9       29.93F
BLOOMINGTON    CLOUDY    78  75  90 S10       29.97F HX  81
DECATUR        PTCLDY    78  75  90 SE3       29.98S FOG     HX  81
PEORIA         CLOUDY    81  77  88 E3        29.94S HX  88
6HR MIN TEMP:  81; 6HR MAX TEMP:  88;

LACON*         CLOUDY    77  73  88 CALM      29.92S
LINCOLN*       MOCLDY    78  78  97 S3        29.95F HX  82
SPRINGFIELD    CLOUDY    83  76  79 S8        29.95S HX  91
6HR MIN TEMP:  82; 6HR MAX TEMP:  89;

TAYLORVILLE    CLEAR     77  76  96 CALM      29.96F
6HR MIN TEMP:  77; 6HR MAX TEMP:  87;

$$

ILZ033-039-045-046-055>057-062-063-240700-
EAST-CENTRAL ILLINOIS

CITY           SKY/WX    TMP DP  RH WIND       PRES   REMARKS
CHAMPAIGN      CLOUDY    76  74  93 SE6       29.98F FOG
MATTOON        CLOUDY    76  73  91 CALM      29.98R FOG
PARIS*         PTCLDY    74  74 100 CALM      29.99F FOG
$$

ILZ079-100>102-240700-
SOUTHWEST ILLINOIS

CITY           SKY/WX    TMP DP  RH WIND       PRES   REMARKS
ALTON          CLEAR     76  73  93 E3        29.96R
BELLEVILLE     CLEAR     78  78  99 CALM      29.94R HX  82
CAHOKIA*       CLEAR     78  74  87 S5        29.94R HX  81
SPARTA*        PTCLDY    78  76  93 SE3       29.96F HX  81
$$

ILZ064>066-069>071-074>076-080>082-084>086-088>090-092>094-240700-
SOUTH-CENTRAL ILLINOIS

CITY           SKY/WX    TMP DP  RH WIND       PRES   REMARKS
CARBONDALE     CLEAR     78  75  90 CALM      29.95S FOG     HX  81
6HR MIN TEMP:  78; 6HR MAX TEMP:  89;

CAIRO*         CLEAR     80  77  92 S3        29.93F HX  85
EFFINGHAM*     CLEAR     76  76 100 CALM      29.99S FOG
MARION         CLOUDY    79  77  94 CALM      29.97R FOG     HX  83
MT. VERNON     CLEAR     75  70  83 CALM      29.97S
CENTRALIA*     CLEAR     78  77  97 CALM      29.96R HX  80
SALEM*         CLEAR     77  75  91 CALM      29.97R
METROPOLIS*    PTCLDY    76  75  96 CALM      29.95F
$$

ILZ067-068-072-073-078-083-087-091-240700-
SOUTHEAST ILLINOIS

CITY           SKY/WX    TMP DP  RH WIND       PRES   REMARKS
LAWRENCEVILLE  CLEAR     78  77  96 E3        29.97S FOG     HX  81
FLORA*         CLEAR     78  76  94 CALM      29.97R FOG     HX  80
FAIRFIELD*     CLEAR     76  76  99 CALM      29.95S FOG
HARRISBURG*    CLEAR     78  77  99 CALM      29.96S FOG
ROBINSON*      CLEAR     73  73  99 CALM      29.97F FOG
CARMI*           N/A     76  76 100 CALM      29.95F FOG
$$

ABBREVIATIONS USED IN REMARKS
   TC - TEMPERATURE IN CELSIUS
  WCI - WIND CHILL INDEX
   HX - HEAT INDEX
  VSB - VISIBILITY
$$





USA.gov is the U.S. government's official web portal to all federal, state and local government web resources and services.